Time,TemperatureF,DewpointF,PressureIn,WindDirection,WindDirectionDegrees,WindSpeedMPH,WindSpeedGustMPH,Humidity,HourlyPrecipIn,Conditions,Clouds,dailyrainin,SoftwareType,DateUTC
2013-01-03 00:03:00,25.0,10.0,-100.00,NW,325,1.0,4.0,52,0.00,,,-99.99,,2013-01-03 05:03:00,
2013-01-03 00:12:00,24.0,10.0,-100.00,NNW,335,1.0,2.0,54,0.00,,,-99.99,,2013-01-03 05:12:00,
2013-01-03 00:23:00,24.0,10.0,-100.00,NNW,345,0.0,3.0,55,0.00,,,-99.99,,2013-01-03 05:23:00,
2013-01-03 00:33:00,24.0,10.0,-100.00,NNW,345,0.0,3.0,55,0.00,,,-99.99,,2013-01-03 05:33:00,
2013-01-03 00:42:00,25.0,11.0,-100.00,ENE,75,1.0,2.0,55,0.00,,,-99.99,,2013-01-03 05:42:00,
2013-01-03 00:52:00,25.0,11.0,-100.00,East,90,1.0,2.0,55,0.00,,,-99.99,,2013-01-03 05:52:00,
2013-01-03 01:03:00,25.0,11.0,-100.00,East,90,1.0,2.0,55,0.00,,,-99.99,,2013-01-03 06:03:00,
2013-01-03 01:12:00,24.0,11.0,-100.00,SE,130,1.0,2.0,56,0.00,,,-99.99,,2013-01-03 06:12:00,
2013-01-03 01:22:00,24.0,11.0,-100.00,NE,35,0.0,2.0,57,0.00,,,-99.99,,2013-01-03 06:22:00,
2013-01-03 01:33:00,24.0,11.0,-100.00,NE,35,0.0,2.0,57,0.00,,,-99.99,,2013-01-03 06:33:00,
2013-01-03 01:42:00,24.0,11.0,-100.00,North,10,0.0,1.0,58,0.00,,,-99.99,,2013-01-03 06:42:00,
2013-01-03 01:52:00,24.0,11.0,-100.00,North,10,0.0,1.0,58,0.00,,,-99.99,,2013-01-03 06:52:00,
2013-01-03 02:02:00,24.0,11.0,-100.00,SE,145,1.0,2.0,58,0.00,,,-99.99,,2013-01-03 07:02:00,
2013-01-03 02:12:00,24.0,11.0,-100.00,SE,130,1.0,3.0,59,0.00,,,-99.99,,2013-01-03 07:12:00,
2013-01-03 02:22:00,24.0,11.0,-100.00,NE,35,1.0,2.0,59,0.00,,,-99.99,,2013-01-03 07:22:00,
2013-01-03 02:33:00,24.0,11.0,-100.00,NE,35,1.0,2.0,59,0.00,,,-99.99,,2013-01-03 07:33:00,
2013-01-03 02:42:00,23.0,11.0,-100.00,ENE,60,0.0,2.0,60,0.00,,,-99.99,,2013-01-03 07:42:00,
2013-01-03 02:52:00,24.0,12.0,-100.00,ENE,75,1.0,2.0,59,0.00,,,-99.99,,2013-01-03 07:52:00,
2013-01-03 03:02:00,24.0,12.0,-100.00,ENE,75,1.0,2.0,59,0.00,,,-99.99,,2013-01-03 08:02:00,
2013-01-03 03:12:00,24.0,11.0,-100.00,ENE,70,1.0,2.0,59,0.00,,,-99.99,,2013-01-03 08:12:00,
2013-01-03 03:22:00,24.0,11.0,-100.00,ENE,70,1.0,2.0,59,0.00,,,-99.99,,2013-01-03 08:22:00,
2013-01-03 03:33:00,23.0,11.0,-100.00,SE,135,0.0,1.0,60,0.00,,,-99.99,,2013-01-03 08:33:00,
2013-01-03 03:43:00,22.0,11.0,-100.00,NE,40,1.0,1.0,61,0.00,,,-99.99,,2013-01-03 08:43:00,
2013-01-03 03:53:00,22.0,11.0,-100.00,NE,40,1.0,1.0,61,0.00,,,-99.99,,2013-01-03 08:53:00,
2013-01-03 04:03:00,24.0,11.0,-100.00,NE,35,1.0,4.0,59,0.00,,,-99.99,,2013-01-03 09:03:00,
2013-01-03 04:12:00,22.0,10.0,-100.00,ESE,120,2.0,4.0,60,0.00,,,-99.99,,2013-01-03 09:12:00,
2013-01-03 04:22:00,22.0,10.0,-100.00,ESE,120,2.0,4.0,60,0.00,,,-99.99,,2013-01-03 09:22:00,
2013-01-03 04:33:00,22.0,11.0,-100.00,NNE,20,1.0,3.0,62,0.00,,,-99.99,,2013-01-03 09:33:00,
2013-01-03 04:43:00,22.0,11.0,-100.00,NE,50,1.0,2.0,62,0.00,,,-99.99,,2013-01-03 09:43:00,
2013-01-03 04:52:00,22.0,11.0,-100.00,NNE,30,1.0,2.0,64,0.00,,,-99.99,,2013-01-03 09:52:00,
2013-01-03 05:02:00,22.0,11.0,-100.00,NNE,30,1.0,2.0,64,0.00,,,-99.99,,2013-01-03 10:02:00,
2013-01-03 05:12:00,22.0,12.0,-100.00,NE,45,1.0,1.0,64,0.00,,,-99.99,,2013-01-03 10:12:00,
2013-01-03 05:22:00,22.0,11.0,-100.00,NE,55,0.0,1.0,63,0.00,,,-99.99,,2013-01-03 10:22:00,
2013-01-03 05:33:00,22.0,11.0,-100.00,NE,55,0.0,1.0,63,0.00,,,-99.99,,2013-01-03 10:33:00,
2013-01-03 05:42:00,23.0,12.0,-100.00,NNE,25,2.0,2.0,63,0.00,,,-99.99,,2013-01-03 10:42:00,
2013-01-03 05:52:00,22.0,11.0,-100.00,East,95,1.0,2.0,62,0.00,,,-99.99,,2013-01-03 10:52:00,
2013-01-03 06:02:00,22.0,11.0,-100.00,East,95,1.0,2.0,62,0.00,,,-99.99,,2013-01-03 11:02:00,
2013-01-03 06:12:00,20.0,10.0,-100.00,SE,130,0.0,2.0,65,0.00,,,-99.99,,2013-01-03 11:12:00,
2013-01-03 06:23:00,20.0,11.0,-100.00,NE,50,0.0,1.0,66,0.00,,,-99.99,,2013-01-03 11:23:00,
2013-01-03 06:33:00,20.0,11.0,-100.00,NE,50,0.0,1.0,66,0.00,,,-99.99,,2013-01-03 11:33:00,
2013-01-03 06:43:00,20.0,11.0,-100.00,NE,35,0.0,1.0,67,0.00,,,-99.99,,2013-01-03 11:43:00,
2013-01-03 06:53:00,20.0,11.0,-100.00,ESE,120,1.0,2.0,69,0.00,,,-99.99,,2013-01-03 11:53:00,
2013-01-03 07:03:00,20.0,11.0,-100.00,ESE,120,1.0,2.0,69,0.00,,,-99.99,,2013-01-03 12:03:00,
2013-01-03 07:12:00,20.0,11.0,-100.00,NE,35,1.0,2.0,70,0.00,,,-99.99,,2013-01-03 12:12:00,
2013-01-03 07:22:00,20.0,11.0,-100.00,East,80,1.0,2.0,70,0.00,,,-99.99,,2013-01-03 12:22:00,
2013-01-03 07:33:00,20.0,11.0,-100.00,East,80,1.0,2.0,70,0.00,,,-99.99,,2013-01-03 12:33:00,
2013-01-03 07:42:00,20.0,12.0,-100.00,NE,50,1.0,2.0,71,0.00,,,-99.99,,2013-01-03 12:42:00,
2013-01-03 07:52:00,20.0,12.0,-100.00,SE,135,0.0,2.0,71,0.00,,,-99.99,,2013-01-03 12:52:00,
2013-01-03 08:02:00,20.0,12.0,-100.00,SE,135,0.0,2.0,71,0.00,,,-99.99,,2013-01-03 13:02:00,
2013-01-03 08:13:00,20.0,12.0,-100.00,NE,40,0.0,1.0,71,0.00,,,-99.99,,2013-01-03 13:13:00,
2013-01-03 08:22:00,22.0,14.0,-100.00,NE,40,0.0,0.0,70,0.00,,,-99.99,,2013-01-03 13:22:00,
2013-01-03 08:33:00,22.0,14.0,-100.00,NE,40,0.0,0.0,70,0.00,,,-99.99,,2013-01-03 13:33:00,
2013-01-03 08:42:00,24.0,15.0,-100.00,WNW,285,1.0,2.0,68,0.00,,,-99.99,,2013-01-03 13:42:00,
2013-01-03 08:52:00,25.0,15.0,-100.00,West,260,0.0,2.0,66,0.00,,,-99.99,,2013-01-03 13:52:00,
2013-01-03 09:03:00,25.0,15.0,-100.00,West,260,0.0,2.0,66,0.00,,,-99.99,,2013-01-03 14:03:00,
2013-01-03 09:12:00,26.0,14.0,-100.00,SW,220,0.0,1.0,62,0.00,,,-99.99,,2013-01-03 14:12:00,
2013-01-03 09:23:00,26.0,14.0,-100.00,WSW,250,1.0,2.0,61,0.00,,,-99.99,,2013-01-03 14:23:00,
2013-01-03 09:33:00,26.0,14.0,-100.00,WSW,250,1.0,2.0,61,0.00,,,-99.99,,2013-01-03 14:33:00,
2013-01-03 09:43:00,26.0,14.0,-100.00,SSW,195,2.0,5.0,62,0.00,,,-99.99,,2013-01-03 14:43:00,
2013-01-03 09:53:00,26.0,15.0,-100.00,SSW,200,3.0,6.0,64,0.00,,,-99.99,,2013-01-03 14:53:00,
2013-01-03 10:03:00,26.0,15.0,-100.00,SSW,200,3.0,6.0,64,0.00,,,-99.99,,2013-01-03 15:03:00,
2013-01-03 10:12:00,26.0,15.0,-100.00,SSW,195,4.0,8.0,63,0.00,,,-99.99,,2013-01-03 15:12:00,
2013-01-03 10:23:00,28.0,16.0,-100.00,WSW,245,4.0,7.0,60,0.00,,,-99.99,,2013-01-03 15:23:00,
2013-01-03 10:33:00,28.0,16.0,-100.00,WSW,245,4.0,7.0,60,0.00,,,-99.99,,2013-01-03 15:33:00,
2013-01-03 10:43:00,28.0,15.0,-100.00,SSW,210,4.0,7.0,59,0.00,,,-99.99,,2013-01-03 15:43:00,
2013-01-03 10:53:00,28.0,16.0,-100.00,SSW,205,4.0,9.0,59,0.00,,,-99.99,,2013-01-03 15:53:00,
2013-01-03 11:03:00,28.0,16.0,-100.00,SSW,205,4.0,9.0,59,0.00,,,-99.99,,2013-01-03 16:03:00,
2013-01-03 11:12:00,29.0,16.0,-100.00,SW,215,3.0,7.0,58,0.00,,,-99.99,,2013-01-03 16:12:00,
2013-01-03 11:22:00,29.0,16.0,-100.00,WSW,245,2.0,6.0,58,0.00,,,-99.99,,2013-01-03 16:22:00,
2013-01-03 11:33:00,29.0,16.0,-100.00,WSW,245,2.0,6.0,58,0.00,,,-99.99,,2013-01-03 16:33:00,
2013-01-03 11:43:00,29.0,16.0,-100.00,SSW,195,4.0,7.0,58,0.00,,,-99.99,,2013-01-03 16:43:00,
2013-01-03 11:53:00,30.0,16.0,-100.00,SW,215,4.0,8.0,55,0.00,,,-99.99,,2013-01-03 16:53:00,
2013-01-03 12:03:00,30.0,16.0,-100.00,SW,215,4.0,8.0,55,0.00,,,-99.99,,2013-01-03 17:03:00,
2013-01-03 12:23:00,32.0,17.0,-100.00,South,190,4.0,7.0,52,0.00,,,-99.99,,2013-01-03 17:23:00,
2013-01-03 12:33:00,32.0,17.0,-100.00,South,190,4.0,7.0,52,0.00,,,-99.99,,2013-01-03 17:33:00,
2013-01-03 12:43:00,34.0,17.0,-100.00,SW,235,5.0,9.0,50,0.00,,,-99.99,,2013-01-03 17:43:00,
2013-01-03 12:53:00,33.0,16.0,-100.00,SSW,205,4.0,10.0,49,0.00,,,-99.99,,2013-01-03 17:53:00,
2013-01-03 13:03:00,33.0,16.0,-100.00,SSW,205,4.0,10.0,49,0.00,,,-99.99,,2013-01-03 18:03:00,
2013-01-03 13:13:00,34.0,17.0,-100.00,WSW,240,4.0,9.0,49,0.00,,,-99.99,,2013-01-03 18:13:00,
2013-01-03 13:22:00,35.0,17.0,-100.00,WSW,250,2.0,8.0,48,0.00,,,-99.99,,2013-01-03 18:22:00,
2013-01-03 13:33:00,35.0,17.0,-100.00,WSW,250,2.0,8.0,48,0.00,,,-99.99,,2013-01-03 18:33:00,
2013-01-03 13:42:00,35.0,17.0,-100.00,SSW,200,4.0,9.0,47,0.00,,,-99.99,,2013-01-03 18:42:00,
2013-01-03 13:53:00,35.0,17.0,-100.00,SSW,200,4.0,9.0,47,0.00,,,-99.99,,2013-01-03 18:53:00,
2013-01-03 14:03:00,37.0,17.0,-100.00,NW,305,1.0,6.0,45,0.00,,,-99.99,,2013-01-03 19:03:00,
2013-01-03 14:12:00,36.0,16.0,-100.00,SW,225,4.0,9.0,44,0.00,,,-99.99,,2013-01-03 19:12:00,
2013-01-03 14:56:00,37.0,17.0,-100.00,WSW,250,6.0,8.0,43,0.00,,,-99.99,,2013-01-03 19:56:00,
2013-01-03 15:03:00,37.0,17.0,-100.00,West,270,3.0,8.0,43,0.00,,,-99.99,,2013-01-03 20:03:00,
2013-01-03 15:13:00,37.0,16.0,-100.00,SW,220,3.0,9.0,43,0.00,,,-99.99,,2013-01-03 20:13:00,
2013-01-03 15:22:00,37.0,16.0,-100.00,SW,220,3.0,9.0,43,0.00,,,-99.99,,2013-01-03 20:22:00,
2013-01-03 15:33:00,37.0,16.0,-100.00,SSW,205,4.0,7.0,43,0.00,,,-99.99,,2013-01-03 20:33:00,
2013-01-03 15:42:00,36.0,16.0,-100.00,South,185,4.0,7.0,43,0.00,,,-99.99,,2013-01-03 20:42:00,
2013-01-03 15:53:00,37.0,17.0,-100.00,SSW,195,3.0,6.0,43,0.00,,,-99.99,,2013-01-03 20:53:00,
2013-01-03 16:03:00,37.0,17.0,-100.00,SSW,195,3.0,6.0,43,0.00,,,-99.99,,2013-01-03 21:03:00,
2013-01-03 16:12:00,37.0,17.0,-100.00,South,175,2.0,6.0,43,0.00,,,-99.99,,2013-01-03 21:12:00,
2013-01-03 16:23:00,37.0,17.0,-100.00,SW,230,2.0,4.0,43,0.00,,,-99.99,,2013-01-03 21:23:00,
2013-01-03 16:37:00,37.0,17.0,-100.00,SW,230,2.0,4.0,43,0.00,,,-99.99,,2013-01-03 21:37:00,
2013-01-03 16:48:00,37.0,16.0,-100.00,SW,235,3.0,7.0,43,0.00,,,-99.99,,2013-01-03 21:48:00,
2013-01-03 17:03:00,36.0,17.0,-100.00,West,260,3.0,6.0,44,0.00,,,-99.99,,2013-01-03 22:03:00,
2013-01-03 17:12:00,35.0,16.0,-100.00,SW,220,2.0,6.0,46,0.00,,,-99.99,,2013-01-03 22:12:00,
2013-01-03 17:22:00,33.0,16.0,-100.00,SSW,200,3.0,9.0,49,0.00,,,-99.99,,2013-01-03 22:22:00,
2013-01-03 17:33:00,33.0,16.0,-100.00,SSW,200,3.0,9.0,49,0.00,,,-99.99,,2013-01-03 22:33:00,
2013-01-03 17:43:00,32.0,16.0,-100.00,SSW,210,3.0,7.0,51,0.00,,,-99.99,,2013-01-03 22:43:00,
2013-01-03 17:52:00,32.0,16.0,-100.00,SSW,205,4.0,9.0,52,0.00,,,-99.99,,2013-01-03 22:52:00,
2013-01-03 18:03:00,32.0,16.0,-100.00,SSW,205,4.0,9.0,52,0.00,,,-99.99,,2013-01-03 23:03:00,
2013-01-03 18:12:00,31.0,16.0,-100.00,SSW,200,2.0,7.0,53,0.00,,,-99.99,,2013-01-03 23:12:00,
2013-01-03 18:22:00,31.0,16.0,-100.00,South,185,4.0,7.0,53,0.00,,,-99.99,,2013-01-03 23:22:00,
2013-01-03 18:33:00,31.0,16.0,-100.00,South,185,4.0,7.0,53,0.00,,,-99.99,,2013-01-03 23:33:00,
2013-01-03 18:43:00,31.0,16.0,-100.00,South,190,4.0,6.0,53,0.00,,,-99.99,,2013-01-03 23:43:00,
2013-01-03 18:52:00,31.0,16.0,-100.00,West,275,2.0,6.0,54,0.00,,,-99.99,,2013-01-03 23:52:00,
2013-01-03 19:03:00,31.0,16.0,-100.00,West,275,2.0,6.0,54,0.00,,,-99.99,,2013-01-04 00:03:00,
2013-01-03 19:12:00,31.0,16.0,-100.00,WSW,240,2.0,6.0,53,0.00,,,-99.99,,2013-01-04 00:12:00,
2013-01-03 19:22:00,31.0,16.0,-100.00,SSW,210,2.0,7.0,53,0.00,,,-99.99,,2013-01-04 00:22:00,
2013-01-03 19:33:00,31.0,16.0,-100.00,SSW,210,2.0,7.0,53,0.00,,,-99.99,,2013-01-04 00:33:00,
2013-01-03 19:42:00,31.0,15.0,-100.00,South,175,2.0,4.0,53,0.00,,,-99.99,,2013-01-04 00:42:00,
2013-01-03 19:52:00,32.0,16.0,-100.00,West,260,3.0,9.0,52,0.00,,,-99.99,,2013-01-04 00:52:00,
2013-01-03 20:02:00,32.0,16.0,-100.00,West,260,3.0,9.0,52,0.00,,,-99.99,,2013-01-04 01:02:00,
2013-01-03 20:13:00,33.0,16.0,-100.00,West,260,6.0,11.0,50,0.00,,,-99.99,,2013-01-04 01:13:00,
2013-01-03 20:22:00,33.0,16.0,-100.00,West,265,4.0,9.0,50,0.00,,,-99.99,,2013-01-04 01:22:00,
2013-01-03 20:33:00,33.0,16.0,-100.00,West,265,4.0,9.0,50,0.00,,,-99.99,,2013-01-04 01:33:00,
2013-01-03 20:42:00,33.0,16.0,-100.00,West,280,4.0,11.0,50,0.00,,,-99.99,,2013-01-04 01:42:00,
2013-01-03 20:52:00,33.0,16.0,-100.00,West,265,6.0,12.0,50,0.00,,,-99.99,,2013-01-04 01:52:00,
2013-01-03 21:02:00,33.0,16.0,-100.00,West,265,6.0,12.0,50,0.00,,,-99.99,,2013-01-04 02:02:00,
2013-01-03 21:12:00,33.0,16.0,-100.00,WNW,285,6.0,20.0,49,0.00,,,-99.99,,2013-01-04 02:12:00,
2013-01-03 21:22:00,33.0,16.0,-100.00,WNW,295,9.0,15.0,49,0.00,,,-99.99,,2013-01-04 02:22:00,
2013-01-03 21:33:00,33.0,16.0,-100.00,WNW,295,9.0,15.0,49,0.00,,,-99.99,,2013-01-04 02:33:00,
2013-01-03 21:42:00,33.0,16.0,-100.00,WNW,285,5.0,17.0,50,0.00,,,-99.99,,2013-01-04 02:42:00,
2013-01-03 21:52:00,33.0,17.0,-100.00,West,270,5.0,11.0,51,0.00,,,-99.99,,2013-01-04 02:52:00,
2013-01-03 22:03:00,33.0,17.0,-100.00,West,270,5.0,11.0,51,0.00,,,-99.99,,2013-01-04 03:03:00,
2013-01-03 22:12:00,33.0,16.0,-100.00,WNW,285,5.0,9.0,51,0.00,,,-99.99,,2013-01-04 03:12:00,
2013-01-03 22:22:00,33.0,17.0,-100.00,West,265,6.0,12.0,51,0.00,,,-99.99,,2013-01-04 03:22:00,
2013-01-03 22:33:00,33.0,17.0,-100.00,West,265,6.0,12.0,51,0.00,,,-99.99,,2013-01-04 03:33:00,
2013-01-03 22:42:00,32.0,16.0,-100.00,WNW,285,4.0,9.0,51,0.00,,,-99.99,,2013-01-04 03:42:00,
2013-01-03 22:52:00,31.0,16.0,-100.00,West,265,5.0,12.0,53,0.00,,,-99.99,,2013-01-04 03:52:00,
2013-01-03 23:02:00,31.0,16.0,-100.00,West,265,5.0,12.0,53,0.00,,,-99.99,,2013-01-04 04:02:00,
2013-01-03 23:12:00,32.0,17.0,-100.00,WNW,295,6.0,14.0,53,0.00,,,-99.99,,2013-01-04 04:12:00,
2013-01-03 23:22:00,32.0,17.0,-100.00,WNW,295,7.0,13.0,53,0.00,,,-99.99,,2013-01-04 04:22:00,
2013-01-03 23:32:00,32.0,17.0,-100.00,WNW,295,7.0,13.0,53,0.00,,,-99.99,,2013-01-04 04:32:00,
2013-01-03 23:42:00,33.0,17.0,-100.00,NW,310,10.0,24.0,52,0.00,,,-99.99,,2013-01-04 04:42:00,
2013-01-03 23:52:00,33.0,17.0,-100.00,WNW,300,7.0,19.0,51,0.00,,,-99.99,,2013-01-04 04:52:00,